Albert Lea, MN

2:25 AM CST on January 19, 2018 (GMT -0600)
Albert Lea Municipal

Weather History for KAEL - February, 2013

Change the Weather History Date:

Monday, February 18, 2013

  Actual Average Record
Temperature  
Mean Temperature 20 °F -  
Max Temperature 35 °F 29 °F 55 °F (2017)
Min Temperature 5 °F 15 °F -16 °F (2006)
Degree Days  
Heating Degree Days 45    
Moisture  
Dew Point 19 °F    
Average Humidity 83    
Maximum Humidity 93    
Minimum Humidity 73    
Precipitation  
Precipitation 0.00 in - - ()
Sea Level Pressure  
Sea Level Pressure 29.63 in    
Wind  
Wind Speed 13 mph (West)    
Max Wind Speed 23 mph    
Max Gust Speed 38 mph    
Visibility 8 miles    
Events Snow    
Averages and records for this station are not official NWS values.
T = Trace of Precipitation, MM = Missing Value Source: NWS Daily Summary

Daily Weather History Graph

Daily Weather History Graph

Search for Another Location

Airport or City:

Trip Planner

Search our weather history database for the weather conditions in past years. The results will help you decide how hot, cold, wet, or windy it might be!

Date:

Astronomy

Feb. 18, 2013 Rise Set
Actual Time 7:07 AM CST 5:48 PM CST
Civil Twilight 6:37 AM CST 6:17 PM CST
Nautical Twilight 6:04 AM CST 6:50 PM CST
Astronomical Twilight 5:31 AM CST 7:24 PM CST
Moon 11:29 AM CST (2/18) 1:52 AM CST (2/18)
Length of Visible Light 11h 39m
Length of Day
10h 40m
First Quarter, 58% of the Moon is Illuminated
Feb 18
First Quarter
Feb 25
Full
Mar 4
Last Quarter
Mar 11
New
Mar 19
First Quarter

Hourly Weather History & Observations

Time (CST) Temp. Windchill Dew Point Humidity Pressure Visibility Wind Dir Wind Speed Gust Speed Precip Events Conditions
12:09 AM 33.8 °F 22.2 °F 26.6 °F 75% 29.61 in 10.0 mi SSE 20.7 mph - N/A   Clear
12:29 AM 33.8 °F 23.2 °F 26.6 °F 75% 29.60 in 10.0 mi SSE 17.3 mph 25.3 mph N/A   Clear
12:50 AM 33.8 °F 23.5 °F 26.6 °F 75% 29.59 in 10.0 mi South 16.1 mph 25.3 mph N/A   Clear
1:09 AM 33.8 °F 23.5 °F 26.6 °F 75% 29.59 in 10.0 mi SSE 16.1 mph 23.0 mph N/A   Clear
1:30 AM 33.8 °F 23.9 °F 26.6 °F 75% 29.58 in 10.0 mi South 15.0 mph 21.9 mph N/A   Clear
1:49 AM 33.8 °F 24.8 °F 26.6 °F 75% 29.58 in 10.0 mi South 12.7 mph 20.7 mph N/A   Clear
2:09 AM 32.0 °F 22.5 °F 26.6 °F 80% 29.57 in 10.0 mi South 12.7 mph - N/A   Clear
2:30 AM 32.0 °F 22.5 °F 26.6 °F 80% 29.57 in 10.0 mi South 12.7 mph - N/A   Clear
2:49 AM 32.0 °F 23.6 °F 26.6 °F 80% 29.57 in 10.0 mi South 10.4 mph 17.3 mph N/A   Clear
3:09 AM 30.2 °F 22.6 °F 26.6 °F 86% 29.56 in 10.0 mi South 8.1 mph - N/A   Clear
3:30 AM 30.2 °F 21.3 °F 26.6 °F 86% 29.54 in 10.0 mi South 10.4 mph - N/A   Clear
3:49 AM 30.2 °F 22.6 °F 26.6 °F 86% 29.54 in 10.0 mi South 8.1 mph - N/A   Clear
4:09 AM 30.2 °F 24.3 °F 26.6 °F 86% 29.54 in 10.0 mi South 5.8 mph - N/A   Clear
4:30 AM 30.2 °F 23.4 °F 26.6 °F 86% 29.53 in 10.0 mi South 6.9 mph - N/A   Clear
4:49 AM 30.2 °F 22.6 °F 26.6 °F 86% 29.54 in 10.0 mi South 8.1 mph - N/A   Clear
5:09 AM 30.2 °F 24.3 °F 26.6 °F 86% 29.54 in 10.0 mi South 5.8 mph - N/A   Clear
5:30 AM 30.2 °F 26.7 °F 26.6 °F 86% 29.54 in 10.0 mi SSW 3.5 mph - N/A   Clear
5:49 AM 30.2 °F 25.4 °F 26.6 °F 86% 29.54 in 10.0 mi South 4.6 mph - N/A   Clear
6:10 AM 28.4 °F 24.6 °F 26.6 °F 93% 29.54 in 10.0 mi South 3.5 mph - N/A   Clear
6:29 AM 28.4 °F 23.3 °F 26.6 °F 93% 29.54 in 10.0 mi South 4.6 mph - N/A   Clear
6:49 AM 30.2 °F 25.4 °F 26.6 °F 86% 29.55 in 10.0 mi South 4.6 mph - N/A   Clear
7:09 AM 30.2 °F 25.4 °F 26.6 °F 86% 29.55 in 10.0 mi SSW 4.6 mph - N/A   Clear
7:29 AM 30.2 °F 25.4 °F 26.6 °F 86% 29.55 in 10.0 mi South 4.6 mph - N/A   Clear
7:50 AM 30.2 °F 25.4 °F 26.6 °F 86% 29.56 in 10.0 mi SSW 4.6 mph - N/A   Scattered Clouds
8:09 AM 30.2 °F 25.4 °F 26.6 °F 86% 29.56 in 10.0 mi WSW 4.6 mph - N/A   Scattered Clouds
8:29 AM 30.2 °F 24.3 °F 28.4 °F 93% 29.54 in 10.0 mi WNW 5.8 mph - N/A   Scattered Clouds
8:49 AM 33.8 °F 27.7 °F 30.2 °F 87% 29.55 in 10.0 mi West 6.9 mph - N/A   Mostly Cloudy
9:09 AM 35.6 °F 30.7 °F 32.0 °F 87% 29.56 in 10.0 mi WNW 5.8 mph - N/A   Overcast
9:29 AM 35.6 °F 30.7 °F 32.0 °F 87% 29.57 in 10.0 mi WNW 5.8 mph - N/A   Overcast
9:49 AM 35.6 °F 30.7 °F 32.0 °F 87% 29.58 in 10.0 mi West 5.8 mph - N/A   Overcast
10:09 AM 35.6 °F 29.9 °F 32.0 °F 87% 29.57 in 7.0 mi WNW 6.9 mph - N/A   Overcast
10:29 AM 35.6 °F 29.2 °F 33.8 °F 93% 29.56 in 7.0 mi WNW 8.1 mph - N/A   Overcast
10:49 AM 35.6 °F 28.0 °F 33.8 °F 93% 29.57 in 3.0 mi WNW 10.4 mph - N/A   Overcast
11:10 AM 32.0 °F 20.8 °F 30.2 °F 93% 29.58 in 3.0 mi NW 17.3 mph 26.5 mph N/A   Overcast
11:29 AM 30.2 °F 19.3 °F 28.4 °F 93% 29.59 in 4.0 mi NW 15.0 mph 23.0 mph N/A   Overcast
11:49 AM 30.2 °F 20.8 °F 28.4 °F 93% 29.60 in 5.0 mi WNW 11.5 mph 25.3 mph N/A   Overcast
12:15 PM 30.2 °F 18.9 °F 26.6 °F 86% 29.59 in 7.0 mi WNW 16.1 mph 24.2 mph N/A   Overcast
12:35 PM 28.4 °F 17.0 °F 24.8 °F 86% 29.60 in 10.0 mi WNW 15.0 mph 26.5 mph N/A   Overcast
12:55 PM 28.4 °F 17.5 °F 23.0 °F 80% 29.60 in 10.0 mi WNW 13.8 mph 28.8 mph N/A   Overcast
1:15 PM 26.6 °F 13.1 °F 23.0 °F 86% 29.60 in 10.0 mi WNW 19.6 mph 31.1 mph N/A   Overcast
1:35 PM 26.6 °F 14.7 °F 21.2 °F 80% 29.61 in 10.0 mi WNW 15.0 mph 27.6 mph N/A   Overcast
1:54 PM 26.6 °F 13.1 °F 21.2 °F 80% 29.62 in 10.0 mi WNW 19.6 mph 29.9 mph N/A   Overcast
2:15 PM 24.8 °F 11.5 °F 19.4 °F 80% 29.64 in 10.0 mi WNW 17.3 mph 28.8 mph N/A   Overcast
2:35 PM 23.0 °F 8.7 °F 17.6 °F 80% 29.65 in 10.0 mi WNW 18.4 mph 29.9 mph N/A   Overcast
2:55 PM 21.2 °F 7.3 °F 17.6 °F 86% 29.66 in 10.0 mi WNW 16.1 mph 28.8 mph N/A   Overcast
3:15 PM 21.2 °F 6.8 °F 15.8 °F 80% 29.66 in 10.0 mi NW 17.3 mph 31.1 mph N/A   Overcast
3:35 PM 21.2 °F 8.3 °F 17.6 °F 86% 29.67 in 10.0 mi WNW 13.8 mph 26.5 mph N/A   Overcast
3:55 PM 21.2 °F 6.4 °F 15.8 °F 80% 29.68 in 10.0 mi WNW 18.4 mph 28.8 mph N/A   Overcast
4:14 PM 19.4 °F 5.0 °F 14.0 °F 80% 29.68 in 10.0 mi NW 16.1 mph 28.8 mph N/A   Overcast
4:35 PM 19.4 °F 4.1 °F 14.0 °F 80% 29.68 in 3.0 mi WNW 18.4 mph 32.2 mph N/A Snow Light Snow
4:54 PM 17.6 °F 2.7 °F 12.2 °F 79% 29.69 in 10.0 mi NW 16.1 mph 27.6 mph N/A   Overcast
5:15 PM 17.6 °F 1.3 °F 10.4 °F 73% 29.69 in 7.0 mi WNW 19.6 mph 29.9 mph N/A   Overcast
5:35 PM 15.8 °F -0.6 °F 10.4 °F 79% 29.70 in 4.0 mi WNW 18.4 mph 31.1 mph N/A Snow Light Snow
5:54 PM 15.8 °F -0.2 °F 10.4 °F 79% 29.70 in 4.0 mi WNW 17.3 mph 28.8 mph N/A Snow Light Snow
6:15 PM 14.0 °F -2.0 °F 10.4 °F 86% 29.73 in 4.0 mi WNW 16.1 mph 27.6 mph N/A Snow Light Snow
6:35 PM 12.2 °F -5.8 °F 8.6 °F 85% 29.73 in 4.0 mi WNW 19.6 mph 27.6 mph N/A   Overcast
6:54 PM 12.2 °F -3.7 °F 8.6 °F 85% 29.74 in 4.0 mi NW 15.0 mph 28.8 mph N/A Snow Light Snow
7:15 PM 12.2 °F -5.3 °F 6.8 °F 79% 29.75 in 5.0 mi NW 18.4 mph 29.9 mph N/A   Haze
7:35 PM 10.4 °F -9.1 °F 5.0 °F 79% 29.75 in 7.0 mi NW 21.9 mph 32.2 mph N/A   Overcast
7:54 PM 10.4 °F -8.6 °F 3.2 °F 73% 29.74 in 7.0 mi WNW 20.7 mph 32.2 mph N/A   Overcast
8:15 PM 8.6 °F -8.3 °F 3.2 °F 79% 29.76 in 7.0 mi NW 15.0 mph 28.8 mph N/A   Overcast
8:34 PM 8.6 °F -9.5 °F 1.4 °F 73% 29.76 in 7.0 mi WNW 17.3 mph 38.0 mph N/A Snow Light Snow
8:55 PM 8.6 °F -11.9 °F 3.2 °F 79% 29.76 in 5.0 mi NW 23.0 mph 32.2 mph N/A Snow Light Snow
9:15 PM 8.6 °F -10.0 °F 3.2 °F 79% 29.76 in 4.0 mi WNW 18.4 mph 27.6 mph N/A Snow Light Snow
9:34 PM 6.8 °F -12.9 °F 1.4 °F 79% 29.77 in 4.0 mi NW 19.6 mph 27.6 mph N/A Snow Light Snow
9:55 PM 6.8 °F -12.9 °F 1.4 °F 79% 29.77 in 3.0 mi WNW 19.6 mph 32.2 mph N/A Snow Light Snow
10:15 PM 6.8 °F -10.7 °F 1.4 °F 79% 29.77 in 3.0 mi NW 15.0 mph 32.2 mph N/A Snow Light Snow
10:35 PM 6.8 °F -11.3 °F 1.4 °F 79% 29.78 in 4.0 mi NW 16.1 mph 34.5 mph N/A Snow Light Snow
10:55 PM 6.8 °F -12.4 °F 1.4 °F 79% 29.78 in 3.0 mi WNW 18.4 mph 31.1 mph N/A Snow Light Snow
11:14 PM 6.8 °F -12.9 °F 1.4 °F 79% 29.78 in 3.0 mi WNW 19.6 mph 28.8 mph N/A Snow Light Snow
11:35 PM 5.0 °F -15.2 °F 1.4 °F 85% 29.80 in 1.8 mi NW 19.6 mph 29.9 mph N/A Snow Light Snow
11:55 PM 5.0 °F -13.0 °F 1.4 °F 85% 29.81 in 1.8 mi WNW 15.0 mph 31.1 mph N/A Snow Light Snow